Regional Weather Roundup
Issued by NWS Sioux Falls, SD

Home | Current Version | Previous Version | Text Only | Print | Product List | Glossary On
Versions: 1 2 3 4 5 6 7 8 9 10 11 12 13 14 15 16 17 18 19 20 21 22 23 24 25 26 27 28 29 30 31 32 33 34 35 36 37 38 39 40 41 42 43 44 45 46 47 48 49 50
000
ASUS43 KFSD 270910
RWRFSD

WEATHER ROUNDUP FOR SE SOUTH DAKOTA/SW MINNESOTA/NW IOWA
NATIONAL WEATHER SERVICE SIOUX FALLS SD
400 AM CDT WED MAY 27 2015

NOTE: "FAIR" INDICATES FEW OR NO CLOUDS BELOW 12,000 FEET WITH NO
SIGNIFICANT WEATHER AND OR OBSTRUCTIONS TO VISIBILITY.


SDZ038>040-050-052>070-271000-
SOUTHEAST SOUTH DAKOTA

CITY           SKY/WX    TMP DP  RH WIND       PRES   REMARKS
BROOKINGS      CLEAR     54  48  82 W3        29.91S
CHAMBERLAIN    CLEAR     54  50  86 W6        29.97R
HURON          CLEAR     54  49  83 SW6       29.91S
MADISON        FAIR      55  54  94 W7        29.92R
MITCHELL       CLEAR     57  51  80 W7        29.93R
SIOUX FALLS    CLEAR     53  49  86 CALM      29.92R
WINNER         FAIR      59  46  62 CALM      29.99R
YANKTON        CLEAR     55  48  76 SW5       29.94R
$$

MNZ071-072-080-081-089-090-097-098-271000-
SOUTHWEST MINNESOTA

CITY           SKY/WX    TMP DP  RH WIND       PRES   REMARKS
FAIRMONT       CLOUDY    55  50  82 W7        29.88S
JACKSON        MOCLDY    55  54  94 SW3       29.92R
LUVERNE        CLEAR     54  48  82 CALM      29.92R
MARSHALL       CLEAR     57  48  72 W13       29.87R
MONTEVIDEO     PTCLDY    55  54  94 W5        29.86R
REDWOOD FALLS  MOCLDY    55  53  93 S6        29.86R
TRACY          PTCLDY    56  53  87 SW8       29.88S
WINDOM         MOCLDY    55  54  94 CALM      29.90S FOG
WORTHINGTON    PTCLDY    55  50  82 SW7       29.91S
$$

IAZ001>003-012>014-020>022-031-032-NEZ013-014-SDZ071-271000-
NORTHWEST IOWA

CITY           SKY/WX    TMP DP  RH WIND       PRES   REMARKS
CHEROKEE       PTCLDY    54  54  99 S5        29.92S
DENISON        PTCLDY    54  54 100 CALM      29.93R
ESTHERVILLE    CLOUDY    54  53  97 W7        29.90R
LE MARS        CLEAR     52  52 100 S5        29.94R
ORANGE CITY    CLEAR     54  52  94 CALM      29.93R
SHELDON        PTCLDY    54  54 100 CALM      29.91R
SIOUX CITY     CLEAR     51  49  92 S3        29.95R
SPENCER        MOCLDY    54  52  93 W7        29.92R FOG
STORM LAKE     PTCLDY    55  54  94 W8        29.94R
$$

ABBREVIATIONS USED IN REMARKS
   TC - TEMPERATURE IN CELSIUS
  WCI - WIND CHILL INDEX
   HX - HEAT INDEX
  VSB - VISIBILITY



USA.gov is the U.S. government's official web portal to all federal, state and local government web resources and services.